Location: El Bakhil
(32.7726°N, 5.5387°W)
Time: 04:48:25
(UTC+00:00)

COSMOS 2428 - Pass Details

Date: 03 March 2021
Orbit: 846 x 857 km, 70.9° (Epoch: 12 April)

Event Time Altitude Azimuth Distance (km) Brightness Sun altitude
Rises 19:12:29 0° 168° (SSE) 3,388 5.7 -11.6°
Reaches altitude 10° 19:15:17 10° 156° (SSE) 2,457 4.9 -12.2°
Maximum altitude 19:19:51 26° 102° (ESE) 1,614 3.6 -13.1°
Drops below altitude 10° 19:24:25 10° 48° (NE) 2,471 4.7 -14.1°
Enters shadow 19:24:46 - 46° (NE) 2,579 4.8 -14.2°
